Location: Asheville, NC
(35.6000°N, 82.5500°W)
Time: 03:08:25
(UTC-04:00)

RS-15 - Pass Details

Date: 12 March 2018
Orbit: 1890 x 2154 km, 64.8° (Epoch: 19 June)

Event Time Altitude Azimuth Distance (km) Brightness Sun altitude
Exits shadow 01:04:52 28° 34° (NNE) 3,380 9.3 -56.7°
Drops below altitude 10° 01:09:17 10° 32° (NNE) 4,596 10.2 -57.0°
Sets 01:12:39 0° 31° (NNE) 5,574 10.8 -57.1°
